Regional Weather Roundup
Issued by NWS Goodland, KS

Home | Current Version | Previous Version | Text Only | Print | Product List | Glossary On
Versions: 1 2 3 4 5 6 7 8 9 10 11 12 13 14 15 16 17 18 19 20 21 22 23 24 25 26 27 28 29 30 31 32 33 34 35 36 37 38 39 40 41 42 43 44 45 46 47 48 49 50
000
ASUS43 KGLD 011808
RWRGLD

GOODLAND FORECAST AREA HOURLY WEATHER ROUNDUP
NATIONAL WEATHER SERVICE GOODLAND KS
1100 AM MST WED MAR 01 2017

...OFFICIAL OBSERVATIONS...

CITY           SKY/WX    TMP DP  RH WIND       PRES   REMARKS
GOODLAND KS    SUNNY     43   5  20 NW37G45   30.22F
HILL CITY KS   SUNNY     48  10  21 NW21G35   30.24R
IMPERIAL NEB   SUNNY     40   8  26 NW21G28   30.22S
MCCOOK NEB     SUNNY     46  11  24 NW29G37   30.22R
AKRON CO       SUNNY     38  10  31 W15G26    30.19S
BURLINGTON CO  SUNNY     43   7  22 NW21G31   30.23F
LIMON CO       SUNNY     30  13  49 CALM      30.23R
$$

...UNOFFICIAL OBSERVATIONS...

CITY           SKY/WX    TMP DP  RH WIND       PRES   REMARKS
LENORA KS        N/A     45  32  60 N16         N/A
NORTON KS      SUNNY     48   3  15 NW28G33   30.21R
SHARON SPRINGS   N/A     44   7  21 NW21G29     N/A
TRENTON NEB      N/A     42  32  68 NW15        N/A
KIT CARSON CO    N/A     40   8  26 MISG        N/A
YUMA CO        FAIR      36  12  38 NW18G32   30.22S
$$



USA.gov is the U.S. government's official web portal to all federal, state and local government web resources and services.